Regional Weather Roundup
Issued by NWS

Home | Current Version | Previous Version | Text Only | Print | Product List | Glossary On
Versions: 1 2 3 4 5 6 7 8 9 10 11 12 13 14 15 16 17 18 19 20 21 22 23 24 25 26 27 28 29 30 31 32 33 34 35 36 37 38 39 40 41 42 43 44 45 46 47 48 49 50
035
ASUS44 KMEG 291010
RWRTN
TENNESSEE HOURLY STATE WEATHER ROUNDUP
NATIONAL WEATHER SERVICE MEMPHIS TN
500 AM CDT FRI JUL 29 2016

TNZ002-004-019-021-049-052-054-088>092-291100-
WEST TENNESSEE

CITY           SKY/WX    TMP DP  RH WIND       PRES   REMARKS
MEMPHIS INTL   CLOUDY    76  72  87 SW9       29.96S
NWS MEMPHIS      N/A     76 N/A N/A MISG        N/A
JACKSON        MOCLDY    75  75 100 S6        29.95R
DYERSBURG      CLOUDY   N/A N/A N/A MISG        N/A
UNION CITY     MOCLDY    73  73 100 S5        29.92F
PARIS          CLEAR     73  72  94 CALM      29.95S
LEXINGTON      CLOUDY    75  73  94 S5        29.96R
$$

TNZ008-025-027-028-033-062-065-066-291100-
NORTH MIDDLE TENNESSEE

CITY           SKY/WX    TMP DP  RH WIND       PRES   REMARKS
NASHVILLE      CLOUDY    77  73  87 SW3       29.97S
CLARKSVILLE    CLOUDY    74  73  97 S5        29.94S
SMYRNA         CLOUDY    77  74  90 SW5       29.98S
COOKEVILLE     CLOUDY    73  72  94 VRB3      30.00R
CROSSVILLE     FOG       70  70 100 SW6       30.04S VSB 1
$$

TNZ061-075-076-078-094-096-097-291100-
SOUTH MIDDLE TENNESSEE

CITY           SKY/WX    TMP DP  RH WIND       PRES   REMARKS
FAYETTEVILLE   CLOUDY    73  73 100 W6        30.01R FOG
TULLAHOMA      CLOUDY    72  72 100 SW5       30.02S
WINCHESTER     CLOUDY    73  72  94 W3        30.01S
MCMINNVILLE    CLOUDY    72  72 100 CALM      30.01S
COLUMBIA       CLOUDY   N/A N/A N/A SW6       29.97S
SHELBYVILLE    CLOUDY    75  75 100 SW5       30.01R
$$

TNZ017-018-042-046-047-291100-
NORTHEAST TENNESSEE

CITY           SKY/WX    TMP DP  RH WIND       PRES   REMARKS
TRI CITIES     CLOUDY    70  68  93 W5        30.02R
ELIZABETHTON   DRIZZLE   70  68  94 VRB3      30.02R
$$

TNZ012-013-036-069-073-074-291100-
CENTRAL EAST TENNESSEE

CITY           SKY/WX    TMP DP  RH WIND       PRES   REMARKS
KNOXVILLE      CLOUDY    74  72  93 SW7       29.99S
OAK RIDGE      CLOUDY    73  71  93 CALM      30.01S
GATLINBURG     CLOUDY    70  70 100 CALM      30.00S
MORRISTOWN     CLOUDY    72  72 100 CALM      30.01R
$$

TNZ083-085-099-291100-
SOUTHEAST TENNESSEE

CITY           SKY/WX    TMP DP  RH WIND       PRES   REMARKS
CHATTANOOGA    CLOUDY    76  71  85 CALM      30.00S
$$

SKY/WX REPORTED AS FAIR MEANS FEW OR NO CLOUDS BELOW
12 THOUSAND FEET.





USA.gov is the U.S. government's official web portal to all federal, state and local government web resources and services.